User: anonymous   Login
Location: Bushey
(51.6333°N, 0.3667°W)
Time: 16:19:40
(UTC+00:00)
Language:

USA 245 - Orbit

View from above orbital plane
View from above orbital plane
View from above satellite
View from above satellite

Ground track
Ground track

The orbit data is extracted from the following two-line orbital elements,

1 39232U 13043A   21126.88182133 0.00012490  00000-0  12779-3 0    04
2 39232  97.8853 190.1183 0512611  65.1725 294.8645 14.81118719    05
Epoch (UTC): 06 May 2021 21:09:49
Eccentricity: 0.0512611
inclination: 97.8853°
perigee height: 267 km
apogee height: 985 km
right ascension of ascending node: 190.1183°
argument of perigee: 65.1725°
revolutions per day: 14.81118719
mean anomaly at epoch: 294.8645°
orbit number at epoch: 0

The dashed part of the orbit path shows where the satellite is in the earth's shadow,  

DLR